Theta_e
287 288 288 287 287 287 287 287 287 286 286 286 285 285 285 285 285 285 285 285 285 285 285 286 287 289 290 291 291 291 291 292 292 293 293 293 293 293 293 293 293 293 293 293 293 293 293 293 293 292 292 292 292 293 293 294 295 295 296 296 296 296 295 293 293 294 292 291 291 291 290 290 289 289 288 288 287 287 286 286 286 286 286 286 286
287 287 287 287 287 287 287 287 287 287 287 286 286 285 285 285 285 285 285 285 285 285 285 285 285 286 287 288 289 290 290 291 291 292 292 292 292 292 292 292 293 293 293 293 293 292 292 292 292 292 292 292 291 292 292 292 293 294 294 295 295 295 296 294 293 292 291 290 290 290 290 289 289 289 289 288 287 287 286 286 286 286 286 286 285
287 287 287 287 287 287 287 286 286 287 287 287 286 286 285 285 285 285 285 285 285 285 285 285 285 285 285 285 286 287 288 289 290 291 291 291 291 292 292 292 292 292 292 292 292 292 292 292 292 292 291 291 291 291 291 291 292 292 293 294 294 295 295 295 294 292 290 289 290 290 289 289 289 289 289 288 287 286 286 286 286 286 286 286 286
287 286 286 286 286 286 286 286 286 286 286 287 287 286 285 285 284 284 284 284 284 284 284 285 285 285 285 285 285 285 286 287 288 289 290 290 291 291 291 291 291 291 291 291 291 292 291 291 291 291 291 291 291 290 290 291 291 291 292 292 293 293 294 295 294 293 291 289 289 289 290 289 289 288 288 287 286 286 286 286 286 286 286 286 286
287 286 286 286 286 286 286 286 285 285 285 286 286 286 285 284 284 284 283 283 284 284 284 284 285 285 285 285 285 285 285 285 286 286 287 288 290 290 290 290 290 291 291 291 291 291 291 291 291 291 291 291 290 290 290 290 290 290 291 291 292 292 293 293 294 294 292 290 289 289 289 289 288 287 287 287 286 285 285 285 285 286 286 286 285
287 286 286 285 285 285 285 285 285 284 284 285 286 285 284 284 283 283 283 283 283 283 284 284 284 285 284 284 285 285 285 285 285 285 286 286 287 289 289 290 290 290 290 290 290 290 290 290 290 290 291 290 290 290 290 290 290 290 290 290 291 291 291 292 293 293 292 291 289 288 288 287 287 286 286 286 286 285 284 284 284 285 285 285 285
286 286 286 285 285 285 285 284 284 284 284 284 284 284 284 283 283 283 283 283 283 283 283 283 284 284 284 284 284 285 285 285 285 285 285 285 286 287 288 289 289 289 289 289 289 289 289 290 290 290 290 290 290 290 290 290 290 289 289 290 290 290 290 291 291 291 290 290 289 288 287 287 287 286 286 286 285 284 283 283 283 283 283 284 284
286 286 285 285 285 284 284 284 284 284 284 284 284 283 283 283 283 282 282 282 282 282 282 282 283 283 284 284 284 284 285 285 285 285 285 285 285 286 286 287 288 288 289 289 289 289 289 289 289 289 289 290 290 290 290 290 289 289 289 289 289 290 290 290 290 289 289 288 287 287 286 286 286 285 285 284 283 283 283 283 283 282 283 283 284
286 286 285 285 285 284 284 284 283 283 283 283 283 283 283 283 283 282 282 282 281 281 281 282 282 283 283 283 284 284 284 284 285 285 285 285 285 285 286 286 287 287 287 288 288 289 289 289 289 289 289 289 289 289 289 290 289 289 289 289 289 289 289 289 289 289 288 287 287 286 285 285 284 284 283 283 283 284 284 283 283 283 283 283 283
286 286 285 285 284 284 284 283 283 283 282 282 282 282 282 282 282 282 282 282 281 281 280 280 281 282 282 283 283 284 284 284 284 284 285 285 286 286 286 286 286 286 287 287 288 288 288 288 289 288 288 288 288 289 289 289 289 289 289 289 289 288 289 289 288 288 288 287 286 285 285 284 284 283 283 283 284 284 284 283 282 282 282 281 282
286 285 285 285 284 284 283 283 283 282 282 282 282 282 281 281 281 281 281 281 281 280 280 280 280 280 281 282 282 283 283 283 284 284 285 285 285 286 286 286 286 286 286 287 287 287 288 288 288 288 288 288 288 288 288 288 289 289 289 289 289 288 288 288 288 288 288 288 287 286 285 285 285 284 284 284 284 284 283 283 283 282 281 281 282
285 285 285 284 284 283 283 282 282 282 282 281 281 281 281 281 281 280 280 280 280 279 279 279 279 279 280 280 281 282 282 283 283 283 284 285 285 285 286 286 286 286 286 286 287 287 287 287 288 288 288 288 288 288 288 288 288 288 289 289 289 288 288 288 288 288 288 288 288 287 286 286 285 284 284 284 283 283 283 283 283 282 282 282 282
284 284 284 283 283 283 282 282 282 281 281 281 281 281 280 280 280 280 279 279 279 278 278 278 278 279 279 279 279 280 281 281 282 283 284 284 284 285 285 285 285 285 285 285 286 286 287 287 287 288 288 288 288 288 288 287 288 288 288 288 288 288 288 288 288 288 288 288 288 288 287 287 286 285 284 284 284 283 283 283 283 283 283 283 283
283 282 282 282 282 282 281 281 281 281 280 280 280 280 280 279 279 279 278 278 278 277 277 277 277 277 277 277 278 278 279 280 280 282 283 284 284 284 285 285 285 285 285 285 286 286 287 287 287 287 287 288 288 288 288 288 287 287 287 287 288 288 288 288 288 288 288 288 288 288 288 287 287 286 285 284 285 285 284 283 283 283 283 284 284
281 281 281 281 281 281 281 280 280 279 279 280 279 279 278 278 278 278 277 277 277 276 276 276 276 276 276 276 276 277 278 278 279 280 282 283 283 284 284 284 284 285 285 285 285 286 286 286 287 287 287 287 288 288 288 288 287 287 287 287 287 287 288 288 288 288 288 288 288 288 288 288 287 287 285 285 286 286 286 285 285 284 284 284 284
280 280 280 280 280 279 279 279 278 278 278 278 278 277 277 276 276 276 276 276 275 275 275 275 275 275 275 275 275 276 276 277 277 279 280 282 283 283 284 284 284 284 285 284 285 285 285 286 286 286 287 287 287 288 288 288 288 287 287 287 287 287 287 287 288 288 288 288 288 288 288 288 288 287 286 285 285 285 285 284 284 283 283 283 282
279 278 278 278 278 278 277 277 277 277 276 276 275 275 275 274 274 274 274 274 274 274 274 274 274 274 274 274 274 275 275 276 277 278 279 280 281 282 282 283 283 284 284 284 284 284 284 285 285 286 286 287 287 287 288 288 288 287 287 287 287 287 287 287 287 287 287 288 288 288 288 288 287 287 286 286 285 285 284 283 283 283 282 282 281
277 277 277 276 276 275 275 275 274 274 274 274 273 273 272 272 272 272 272 272 272 272 272 272 272 273 273 273 273 274 274 275 276 277 278 279 280 280 280 281 282 283 283 283 283 283 284 284 285 285 286 286 286 287 287 288 288 288 287 287 287 286 287 287 287 287 287 287 287 287 287 287 287 287 286 286 286 285 285 284 283 283 282 282 282
275 275 274 273 273 273 272 272 272 272 271 271 270 270 270 270 270 270 270 270 270 270 271 271 271 271 272 272 272 273 273 273 274 275 276 277 278 278 279 279 280 281 282 282 283 283 283 283 284 285 285 286 286 287 287 288 288 288 288 287 287 286 287 287 286 286 286 286 286 287 287 286 286 286 286 286 285 285 285 285 284 283 283 283 282
273 272 272 271 271 270 270 270 269 269 268 268 268 268 268 268 268 268 268 268 268 269 269 269 269 269 270 270 270 271 271 272 272 273 274 275 276 277 277 277 278 278 279 280 281 282 283 283 283 284 285 285 286 286 287 288 288 288 288 287 287 287 287 287 286 286 286 285 286 286 285 285 285 285 285 285 285 284 285 285 285 284 284 283 282
271 270 270 269 269 268 268 267 267 267 266 266 266 266 266 266 266 266 266 266 267 267 267 267 267 267 268 268 269 269 270 270 271 271 272 273 274 275 275 276 276 276 277 279 280 281 282 283 283 284 284 285 285 286 287 287 288 288 288 287 287 287 287 286 286 286 286 285 285 285 285 284 284 284 284 284 284 284 284 284 284 284 284 284 282
269 268 268 267 267 266 266 265 265 265 265 265 265 265 265 265 265 265 265 265 265 265 265 266 266 266 266 267 267 267 268 268 269 270 271 272 272 273 274 275 275 276 277 278 279 281 281 282 283 283 284 284 285 286 287 288 288 288 288 288 288 287 287 286 286 286 285 285 285 284 284 284 284 284 284 284 284 284 283 283 283 283 284 284 283
267 266 266 265 265 265 265 264 264 264 264 264 264 264 264 264 264 264 264 264 264 264 265 265 265 265 266 266 266 267 267 268 268 269 270 271 271 272 273 274 275 276 277 278 279 280 281 282 282 283 283 284 284 285 287 288 289 289 289 288 288 287 287 286 286 285 285 285 284 284 284 283 283 283 283 283 284 283 283 282 282 283 283 283 283
265 265 264 264 264 264 264 264 264 264 264 263 264 264 264 264 264 264 264 264 264 264 264 264 265 265 265 265 266 266 267 267 267 268 269 270 270 271 272 273 275 276 277 279 279 280 281 281 282 282 283 284 284 285 286 287 288 289 289 288 288 288 287 286 286 285 284 284 284 283 283 283 283 283 283 283 283 283 282 282 282 282 282 282 282
264 264 263 263 263 263 263 263 263 263 263 263 263 263 263 263 263 264 264 264 264 264 264 264 264 264 265 265 265 266 266 266 267 267 268 268 269 269 271 272 274 276 277 278 280 281 281 282 282 283 283 283 284 285 286 287 287 288 289 288 288 288 287 287 286 285 284 283 283 283 283 283 282 283 283 282 282 282 281 281 280 280 280 280 280
263 263 263 263 263 263 263 263 263 263 263 263 263 263 263 263 263 263 263 263 263 263 263 263 264 264 264 264 265 265 265 265 266 266 266 266 267 268 269 271 272 274 276 278 280 281 282 283 283 283 284 284 284 285 286 287 287 288 288 288 288 288 288 287 286 285 284 283 283 283 283 282 282 282 282 282 281 281 280 279 279 278 278 278 278
263 262 263 263 262 262 262 262 263 263 263 263 263 263 263 263 263 263 263 263 263 263 263 263 263 264 264 264 264 264 264 265 265 265 265 266 266 267 268 269 270 272 274 276 279 281 282 283 283 284 284 284 285 285 285 286 287 287 288 288 288 288 287 287 286 285 284 283 283 283 282 282 282 281 281 281 280 280 279 278 277 276 276 276 276
262 262 262 262 262 262 262 262 262 262 262 262 262 262 262 262 262 262 262 262 263 263 263 263 263 264 264 264 264 265 265 265 265 265 266 266 267 267 268 269 270 271 273 274 276 279 281 282 282 282 283 284 285 285 286 286 286 287 287 287 288 287 287 287 286 285 284 283 283 282 282 281 281 280 280 279 279 278 278 277 276 275 275 275 274
262 262 262 262 262 262 262 262 262 262 262 262 261 261 261 261 262 262 263 263 264 264 264 265 265 265 266 266 266 266 266 267 267 267 268 268 269 270 270 271 271 272 273 274 275 276 278 280 281 282 282 283 284 285 286 286 286 286 286 287 287 287 287 286 285 285 284 283 282 282 281 281 280 279 278 278 278 277 277 276 275 275 274 274 273
262 262 262 262 262 262 261 261 261 261 261 261 261 261 261 262 262 263 264 264 265 265 266 267 267 267 267 268 268 268 268 268 269 269 270 270 271 271 271 272 272 273 274 275 275 276 277 279 280 281 282 283 284 284 285 286 286 286 286 286 286 286 286 286 285 284 284 283 282 282 281 280 279 278 278 277 277 276 275 275 275 274 274 274 273
262 262 262 261 261 261 261 261 261 261 261 261 261 261 261 261 262 263 263 264 265 265 266 267 267 268 268 268 268 268 269 269 269 270 270 270 271 271 271 272 272 273 274 274 275 276 277 278 279 281 283 283 283 284 284 285 285 285 285 285 286 286 285 285 284 284 283 282 282 281 280 280 278 277 277 277 276 275 274 274 274 273 273 274 273
261 261 261 261 261 261 261 261 261 261 261 261 261 261 261 261 261 262 263 263 264 265 265 266 267 267 267 268 268 268 268 269 269 269 270 270 271 271 271 272 272 273 274 274 275 276 277 278 279 281 282 283 283 283 284 284 285 285 285 285 285 285 285 284 284 283 282 282 281 280 280 279 278 277 277 276 275 274 273 273 273 273 273 273 273
261 261 261 261 261 261 261 261 260 260 261 261 261 261 261 261 261 262 262 262 263 264 265 265 266 266 267 267 268 268 268 269 269 269 270 270 271 271 272 272 273 273 274 275 275 276 277 278 279 280 281 283 283 283 284 284 284 284 284 284 284 284 284 284 283 282 282 281 281 280 279 278 277 276 275 275 274 273 273 272 272 272 273 273 273
261 261 260 260 261 260 260 261 261 261 261 261 261 261 261 261 262 262 262 262 263 263 264 264 265 265 266 266 267 268 268 269 269 270 270 271 271 272 272 273 273 274 274 274 275 276 276 277 279 279 281 282 283 283 283 283 284 284 284 284 284 284 283 283 282 281 281 280 279 278 278 277 276 275 274 274 273 273 273 272 272 272 272 272 272
260 260 260 260 260 260 260 260 261 261 261 261 261 261 262 262 262 262 262 263 263 263 263 263 264 265 265 266 267 268 268 269 269 270 271 271 272 272 273 273 273 274 274 274 275 276 276 277 279 280 281 282 282 283 283 283 283 283 283 283 283 283 282 281 281 280 280 279 278 277 277 276 276 275 274 273 273 273 272 272 272 272 272 272 272
260 260 260 260 260 260 260 260 261 261 261 261 261 262 262 262 262 263 263 263 263 263 263 263 264 264 265 266 267 267 268 269 269 270 271 271 272 273 273 274 274 274 274 274 275 275 276 277 279 280 281 282 282 282 282 282 283 283 283 283 282 281 280 280 280 279 278 278 277 276 276 276 275 275 274 273 273 272 272 272 272 272 272 272 271
260 260 260 260 260 260 260 260 261 261 261 262 262 262 262 262 262 263 263 263 263 263 264 264 264 264 265 265 266 267 267 268 269 270 270 271 272 273 273 274 275 275 275 275 275 276 276 277 278 280 281 282 282 282 282 282 282 282 282 282 281 280 279 279 279 278 277 277 276 276 275 275 274 274 273 273 272 272 272 271 271 271 271 271 271
259 259 260 260 260 260 260 261 261 261 261 262 262 262 262 262 263 263 263 263 263 264 264 264 264 265 265 266 266 267 267 268 268 269 270 271 272 273 274 275 276 276 276 276 276 276 277 277 278 280 281 282 282 282 282 282 282 281 281 280 279 279 278 278 278 278 277 276 276 275 275 274 274 273 273 272 272 271 271 271 271 271 271 271 270
259 259 259 259 260 260 260 261 261 261 261 261 262 262 262 263 263 263 263 263 264 264 264 264 265 265 266 266 266 267 267 268 269 270 271 272 273 274 275 276 276 277 278 277 277 277 278 279 279 280 281 282 282 282 282 281 281 280 280 278 278 277 278 277 277 276 276 275 275 274 274 273 273 272 272 272 271 271 270 270 270 270 270 270 270
259 259 259 259 259 260 260 260 261 261 261 261 262 262 262 263 263 263 264 264 264 265 265 265 266 266 266 267 268 268 269 270 271 272 272 273 274 275 275 275 276 277 278 278 279 279 280 280 281 281 281 282 282 282 281 280 280 279 278 278 277 277 277 276 276 276 275 274 274 273 273 272 272 272 272 271 271 270 270 270 270 270 270 270 270
259 258 258 259 259 259 260 260 260 261 261 261 262 262 262 263 263 264 264 264 265 265 266 266 266 267 267 268 269 270 270 271 271 272 272 273 273 273 273 274 275 276 277 278 278 280 280 281 281 281 281 282 281 281 280 279 279 278 277 277 276 276 276 275 275 274 274 273 273 272 272 272 271 271 271 271 270 270 270 270 269 269 269 269 269
258 258 258 258 259 259 260 260 260 261 261 261 262 262 262 263 263 264 264 264 265 265 266 266 266 266 266 267 268 268 268 268 268 269 270 270 270 270 271 272 273 274 275 276 277 279 280 281 281 281 281 281 280 280 279 278 278 277 276 276 275 275 275 274 274 273 273 272 272 271 271 271 271 270 270 270 270 269 269 269 269 269 269 269 269
258 258 258 258 259 259 259 260 260 260 261 261 261 262 262 262 263 263 263 264 264 265 265 265 265 265 265 265 266 266 265 265 266 267 267 268 268 268 269 270 271 272 273 275 276 278 279 280 281 280 280 280 279 279 279 278 277 276 275 275 275 274 274 273 272 272 271 271 271 270 270 270 270 270 270 269 269 269 268 268 268 268 268 268 269
258 258 258 258 259 259 259 260 260 260 260 261 261 261 261 262 262 262 263 263 263 263 263 264 264 263 263 263 263 264 264 264 264 265 266 266 266 266 267 267 268 270 272 273 275 276 277 278 278 278 277 277 277 277 277 277 276 276 275 274 274 273 273 272 272 271 271 270 270 270 270 270 269 269 269 268 268 268 268 268 268 268 268 268 268
258 258 258 258 258 259 259 259 260 260 260 260 260 260 261 261 261 261 262 262 262 262 262 262 262 262 262 262 262 262 263 263 263 264 264 264 264 265 265 266 267 268 270 271 273 274 275 275 275 275 275 275 275 276 276 275 275 274 274 274 273 273 272 272 271 271 271 270 269 269 269 269 269 268 268 268 268 268 268 268 268 268 268 268 268
258 258 258 258 258 259 259 259 259 259 259 259 260 260 260 260 261 261 261 261 261 261 261 261 261 261 261 261 261 262 262 262 262 262 263 263 263 263 264 265 266 267 269 270 271 272 273 273 273 273 273 273 274 274 274 274 274 273 273 273 273 272 272 271 271 270 270 270 269 269 269 268 268 268 268 268 268 268 268 268 268 268 268 267 267
258 258 258 258 258 258 259 259 259 259 259 259 259 259 260 260 260 260 260 261 261 261 261 261 260 260 261 261 261 261 261 261 261 261 261 262 262 262 263 264 265 266 268 269 270 271 271 271 272 272 272 272 272 272 272 273 273 273 272 272 272 272 271 271 270 270 269 269 269 269 268 268 268 268 268 268 268 267 267 267 267 267 267 267 267
258 258 258 258 258 258 258 258 258 258 258 258 258 259 259 259 259 260 260 260 260 260 260 260 260 260 260 260 261 261 261 260 260 260 260 261 261 261 262 263 263 264 266 267 267 268 269 270 270 271 271 271 271 271 271 272 272 272 272 271 271 271 271 270 269 269 269 269 268 268 268 268 268 267 267 267 267 267 267 267 267 267 267 267 267
258 258 258 258 258 258 258 258 258 258 258 258 258 258 259 259 259 259 259 260 260 260 260 260 260 260 260 260 260 260 260 260 260 260 260 260 260 261 262 263 263 263 264 265 265 266 267 268 268 269 270 270 270 270 270 271 271 271 271 271 270 270 270 269 269 269 268 268 268 268 268 267 267 267 267 267 267 267 267 267 267 267 267 267 267
258 258 257 258 258 257 257 257 257 257 258 258 258 258 258 258 259 259 259 259 260 260 260 260 260 260 260 260 260 260 260 260 260 260 260 260 260 261 261 262 262 262 263 263 264 265 265 266 267 267 268 269 269 269 269 270 270 270 269 269 269 269 269 269 268 268 268 268 268 267 267 267 267 267 267 267 267 267 266 266 266 266 266 266 266
258 258 257 257 258 257 257 257 257 257 257 257 257 258 258 258 258 258 259 259 259 260 259 259 259 260 260 260 260 260 260 260 260 260 260 260 260 260 261 261 262 262 262 263 263 264 264 265 265 266 266 267 267 268 268 268 268 268 268 268 268 268 268 268 267 267 268 268 268 268 268 267 267 267 266 266 266 266 266 266 266 266 266 266 266
Wind_Speed
18 17 17 17 17 18 20 20 21 22 23 24 25 25 25 25 26 26 26 26 26 26 26 25 24 23 21 20 19 18 18 18 19 20 21 22 23 24 24 24 26 27 28 29 30 30 31 33 34 35 34 34 37 39 39 38 38 37 34 31 33 35 33 27 15 8 14 24 29 32 34 35 37 39 40 39 38 36 35 36 34 32 29 27 26
17 17 16 16 16 17 18 19 20 21 21 22 23 23 24 25 25 26 27 27 27 26 25 25 25 24 24 22 20 19 18 17 18 19 21 23 24 25 25 25 25 25 26 28 29 30 31 32 33 33 33 34 37 38 39 39 38 39 39 35 32 34 34 32 23 12 12 19 26 29 33 36 37 39 41 41 41 39 38 38 37 35 32 29 27
17 17 16 16 16 16 17 19 20 21 20 20 21 22 23 23 24 25 26 26 27 26 26 25 25 24 24 23 22 21 20 18 17 17 19 22 24 25 26 26 26 25 25 27 28 29 30 31 32 31 31 33 37 37 37 38 38 38 40 39 36 35 35 35 29 20 16 19 26 31 34 37 39 39 40 42 41 39 39 39 39 38 35 32 30
16 18 17 17 18 17 17 19 20 21 20 20 21 22 23 23 23 24 25 25 25 26 26 26 26 25 24 24 23 22 21 20 18 17 17 19 22 25 26 27 26 26 25 26 27 28 30 31 30 30 30 33 36 36 35 36 37 37 38 39 40 38 37 36 34 29 23 21 25 33 37 38 38 38 38 38 38 38 38 38 38 38 37 35 32
16 18 18 19 20 19 20 21 22 23 22 20 21 23 24 25 26 26 26 25 25 25 26 26 26 26 26 25 24 23 22 21 20 19 18 18 20 22 25 26 27 27 26 25 26 27 29 31 30 29 30 33 34 34 33 34 35 36 38 38 39 39 37 37 36 32 29 27 27 29 33 34 33 34 37 38 35 34 34 35 36 37 37 35 33
18 20 21 22 22 22 22 24 26 26 25 23 23 24 26 26 27 29 29 29 28 28 28 27 26 27 27 27 26 25 24 22 21 21 20 19 19 21 23 24 25 26 25 25 26 27 28 30 30 30 31 33 34 32 32 34 35 36 38 38 38 36 36 37 37 32 29 30 30 29 31 33 31 31 36 39 37 35 32 31 32 34 35 34 33
20 22 23 24 24 24 25 26 27 28 28 26 26 28 28 28 29 30 31 31 31 32 31 31 30 30 30 29 28 27 26 24 23 22 21 20 20 21 23 24 24 24 24 25 25 27 28 30 30 31 32 34 34 33 32 34 35 37 39 38 36 35 35 36 36 33 29 28 29 30 31 33 32 31 34 37 35 33 31 28 28 30 32 33 34
19 21 23 23 24 25 25 27 28 29 29 28 29 30 31 31 32 32 32 32 32 31 31 32 32 32 32 31 30 30 28 27 26 26 25 23 22 23 24 24 25 25 25 25 25 26 28 29 31 32 33 34 35 35 34 35 34 36 38 37 35 35 35 34 33 33 30 26 27 29 30 31 30 28 30 32 30 28 32 34 32 32 34 34 34
17 19 20 21 23 25 26 27 28 28 28 28 29 30 32 34 34 35 34 33 32 31 30 30 30 30 32 32 32 31 29 29 29 28 27 26 25 26 26 26 26 27 27 27 26 26 27 28 30 32 34 35 36 36 37 37 36 36 37 35 34 34 34 32 31 31 29 25 24 26 26 26 29 29 30 35 36 35 38 37 32 31 33 32 31
16 18 20 21 22 24 25 27 28 29 29 29 30 30 31 33 34 35 37 36 35 34 32 30 29 30 31 32 32 32 31 32 31 29 28 27 27 29 29 28 28 28 29 29 29 28 28 28 30 31 33 35 37 37 38 38 39 41 39 36 35 36 35 32 31 31 29 25 23 25 23 22 30 35 36 39 41 38 37 35 30 28 28 24 23
16 18 20 21 23 24 25 27 28 28 29 30 31 32 32 32 33 35 36 37 38 37 36 35 33 32 31 31 31 32 33 35 34 32 29 29 29 30 31 31 30 30 30 30 30 30 30 30 30 30 32 33 35 37 38 39 41 43 42 40 38 39 38 36 34 33 31 28 26 27 26 25 32 38 37 37 39 36 36 37 34 30 28 21 16
17 20 21 22 23 24 25 27 27 28 28 29 31 31 32 33 34 35 36 37 38 39 40 41 41 39 36 35 34 34 34 36 36 34 33 33 33 32 33 33 32 32 32 32 32 31 30 31 31 31 31 32 33 34 35 38 40 41 42 43 43 43 43 43 41 37 34 32 28 28 30 30 32 36 37 37 37 36 34 36 36 33 31 27 21
19 22 23 23 24 25 25 26 27 29 30 30 30 30 30 32 33 33 34 35 36 37 39 41 42 43 41 40 40 41 40 40 39 36 35 35 36 35 36 36 35 35 35 34 34 33 32 31 31 32 32 32 31 32 33 35 36 37 39 42 45 47 47 48 47 44 41 38 34 33 37 34 31 36 41 40 39 37 34 34 34 33 31 31 33
21 22 24 25 25 25 25 25 27 29 30 30 30 30 30 30 32 33 33 33 34 36 37 38 38 40 40 41 42 44 45 46 44 38 35 35 36 36 37 38 38 38 36 35 35 35 34 33 32 33 34 32 31 32 32 32 32 32 34 37 42 46 47 48 48 47 46 44 42 42 42 37 35 38 41 42 43 43 40 37 37 37 37 37 38
21 22 24 25 25 25 25 26 28 30 30 29 29 30 31 32 34 34 33 33 35 36 37 38 39 40 40 40 41 43 46 49 48 42 37 36 35 36 38 39 39 39 38 37 36 36 36 35 35 35 35 34 34 33 32 31 29 30 32 35 39 42 44 46 48 48 48 46 46 45 42 39 38 38 39 43 47 46 44 44 43 41 38 31 27
21 22 23 24 24 24 25 27 29 30 29 29 30 31 33 34 36 36 36 36 37 38 38 39 39 41 42 41 40 42 46 49 49 46 42 38 36 37 38 38 38 39 39 39 38 38 38 37 37 37 37 36 36 36 34 32 30 30 32 34 36 38 41 45 47 47 47 46 46 45 41 38 36 36 38 43 45 43 37 34 34 33 28 20 18
21 21 22 23 23 24 25 27 29 30 30 30 32 34 35 36 37 37 36 37 38 39 39 40 40 41 42 42 41 42 45 48 48 47 45 41 39 39 38 38 39 40 41 41 40 39 39 39 39 39 39 38 37 37 36 33 32 32 33 33 34 35 39 43 44 45 47 48 47 46 43 40 37 35 36 40 44 44 37 30 31 33 27 16 13
21 21 22 24 25 26 27 27 29 30 31 32 34 35 36 37 37 36 35 36 38 40 40 41 42 42 42 43 43 42 46 49 47 45 44 43 41 41 40 39 39 40 41 42 42 41 41 41 41 40 41 40 39 38 36 34 34 34 34 33 32 33 38 40 38 38 41 44 47 47 45 43 40 37 37 40 44 48 44 38 36 35 28 20 16
22 23 26 28 29 28 28 28 28 30 32 33 34 36 36 36 35 35 34 35 37 39 39 39 41 43 43 44 45 44 46 49 48 44 43 43 42 42 40 38 38 39 40 41 41 41 41 43 43 42 43 43 42 41 39 36 35 35 36 33 30 34 41 40 32 31 34 37 41 42 41 40 40 39 40 42 45 50 52 48 44 41 35 29 24
26 29 31 31 30 29 28 29 30 31 32 34 34 35 34 34 34 34 34 35 35 37 38 37 40 43 44 44 45 45 45 47 47 45 44 44 44 43 41 39 39 40 42 42 41 41 41 43 44 44 44 44 44 42 42 41 38 38 37 33 32 38 41 35 30 32 34 34 36 36 35 35 35 36 37 40 44 51 53 50 49 50 43 34 31
31 32 32 31 31 31 30 30 31 32 32 33 34 35 33 32 34 35 35 35 35 36 37 37 38 42 44 44 44 44 44 45 46 46 45 45 45 45 43 43 43 43 44 43 42 41 41 42 42 43 44 44 44 42 42 43 41 40 40 38 40 43 38 29 30 35 35 34 34 35 35 35 35 35 37 40 43 49 51 48 48 50 46 38 36
31 32 32 33 33 33 33 32 32 32 33 32 33 35 35 33 34 35 34 34 35 36 37 36 36 39 42 42 42 43 42 41 42 43 43 42 43 43 43 44 45 44 43 43 43 43 43 43 43 42 43 44 44 42 41 42 42 42 43 44 46 46 39 31 32 34 34 34 34 34 35 36 36 37 39 40 42 46 47 47 46 45 44 41 40
30 32 33 34 34 34 35 35 34 33 33 32 33 35 35 34 34 33 32 32 33 34 33 32 34 36 37 36 36 36 36 36 37 38 39 39 39 41 42 43 45 44 43 43 44 45 45 45 44 43 43 43 44 44 42 41 40 42 44 46 47 46 41 35 32 32 33 34 33 32 34 36 37 38 39 41 42 43 44 45 44 43 41 39 38
30 32 33 34 35 35 35 35 34 34 33 33 33 34 34 34 33 31 30 30 30 30 30 29 29 30 31 31 31 31 32 34 34 34 36 37 38 40 42 43 44 44 43 44 44 45 45 45 43 42 42 41 43 45 46 43 41 41 43 45 45 43 39 35 33 32 31 31 30 31 33 35 36 37 39 39 38 38 39 40 39 39 40 39 37
31 32 33 33 34 35 35 35 34 34 33 33 33 33 33 32 31 29 29 29 29 29 30 29 28 28 28 29 30 30 31 33 33 33 34 36 38 40 42 42 42 42 43 43 44 45 45 45 43 41 41 41 43 45 45 43 42 41 41 42 42 40 37 35 34 31 29 29 30 31 32 34 35 35 35 34 33 34 36 35 33 34 36 36 34
32 32 32 33 33 33 34 35 34 33 32 31 31 31 31 31 31 30 29 29 29 29 30 28 28 27 27 28 31 32 32 33 34 34 35 36 37 39 40 41 41 40 39 40 41 43 44 44 42 41 41 40 40 40 40 40 40 40 41 41 41 39 36 35 33 31 30 29 30 30 31 31 32 32 31 32 33 35 36 34 32 32 33 33 31
31 32 32 33 33 32 33 34 34 32 31 31 30 30 30 31 31 30 30 30 29 29 29 29 28 28 28 29 32 33 32 33 34 35 36 36 36 36 36 39 41 39 36 37 37 36 37 37 37 37 37 37 37 38 38 37 36 36 38 39 39 37 36 36 36 34 32 31 30 30 30 29 29 30 32 33 34 35 37 37 35 32 32 33 33
30 32 33 33 33 32 31 32 32 32 32 31 31 31 31 31 31 31 31 31 31 30 30 30 29 30 31 31 32 32 31 31 31 33 34 34 34 34 34 35 39 38 36 36 38 36 32 30 30 32 32 32 33 34 34 34 33 33 34 35 36 36 37 36 35 34 34 32 30 29 28 27 29 31 32 32 32 33 35 37 36 34 34 33 32
30 31 31 32 32 31 30 30 31 32 34 33 32 32 31 31 32 33 33 32 33 34 34 33 32 33 33 31 30 29 28 28 30 34 36 37 38 38 36 35 38 41 41 41 41 38 33 27 26 27 26 25 26 27 28 29 30 31 33 34 33 34 34 33 32 33 33 31 30 28 28 27 28 30 30 30 30 32 35 36 34 34 34 31 28
30 30 30 30 31 31 31 31 32 32 33 33 32 32 31 30 30 33 34 34 34 36 37 38 38 39 37 36 34 34 35 37 39 40 41 41 41 41 40 39 39 41 43 44 42 36 30 25 24 24 23 21 21 22 24 26 26 27 30 32 32 31 31 30 31 32 32 30 30 29 29 28 27 28 29 29 28 30 32 34 34 33 33 29 24
29 30 29 30 31 31 31 32 32 31 31 31 31 31 31 30 30 31 33 34 35 37 38 40 41 41 40 40 40 41 42 44 44 43 41 41 40 39 39 40 40 39 41 42 38 32 26 23 22 22 21 20 19 20 22 23 23 23 25 26 28 29 29 29 30 32 31 30 30 30 30 29 28 28 29 28 28 29 30 30 31 31 31 28 25
28 30 31 31 31 31 31 32 31 30 29 30 29 30 30 29 29 30 31 33 34 36 38 39 40 40 40 41 42 42 42 42 42 41 40 39 39 38 38 38 38 38 39 39 33 28 24 22 20 20 20 19 19 20 22 22 22 22 22 22 23 26 28 29 31 32 31 30 29 29 30 30 29 29 29 28 28 28 27 27 28 28 27 25 24
29 31 32 31 30 30 31 30 29 28 28 28 29 29 28 27 28 30 33 33 33 34 35 37 38 39 39 39 40 41 42 42 41 40 39 38 38 37 36 37 37 37 37 34 29 24 23 22 21 21 21 20 19 19 21 22 22 22 22 22 22 25 28 29 30 31 31 31 31 30 30 31 30 29 29 29 30 29 27 27 27 26 25 23 22
29 31 31 29 29 29 30 28 28 27 27 28 29 29 29 29 29 30 31 31 29 30 33 35 37 38 38 38 39 39 40 41 40 38 37 36 35 35 36 36 35 35 35 32 26 22 21 23 24 24 24 22 19 18 19 21 22 21 22 23 23 24 25 26 28 29 29 30 30 30 31 32 32 31 29 29 29 28 27 27 27 27 25 23 21
29 30 29 28 28 29 29 28 28 28 28 28 29 29 30 31 30 30 29 28 28 29 31 34 36 38 38 37 38 39 39 38 38 37 36 35 35 37 35 30 26 26 28 28 25 21 21 22 24 25 25 23 19 17 18 19 21 21 22 22 21 22 23 25 27 28 28 28 29 30 31 33 34 34 32 31 30 28 26 27 27 27 26 25 23
29 29 28 28 27 28 29 29 29 29 29 29 29 29 30 30 30 30 30 30 29 30 31 34 37 39 40 39 36 35 36 36 35 36 36 36 37 35 30 24 20 20 22 24 24 22 22 23 25 26 26 24 21 19 20 21 22 23 22 21 21 22 23 25 26 26 27 28 29 31 33 33 34 34 32 31 30 29 27 27 26 25 25 25 24
28 28 28 28 28 29 29 29 29 29 29 29 29 29 30 30 30 30 29 29 29 30 31 33 34 34 37 39 38 35 34 35 36 35 35 34 33 30 26 23 22 21 21 24 24 22 22 24 26 27 24 22 20 20 21 23 24 23 22 22 23 25 26 27 29 30 30 29 30 32 33 32 33 34 32 29 28 27 26 27 26 24 24 25 24
28 27 26 27 28 28 29 29 28 28 28 28 28 28 28 29 29 29 28 28 29 29 29 31 31 28 30 36 40 38 36 35 33 33 32 31 30 27 25 23 23 21 19 22 24 23 22 23 26 27 23 20 19 19 21 22 22 22 21 22 24 25 27 28 30 31 31 29 29 30 30 29 30 32 32 29 27 26 26 26 26 24 24 25 23
27 27 26 26 28 28 27 26 27 26 26 27 28 28 28 28 28 28 28 28 28 28 28 28 29 28 30 34 37 36 33 29 27 28 30 30 30 28 26 24 24 23 20 19 20 21 22 23 26 27 24 22 19 20 21 21 21 22 23 23 23 23 24 26 27 27 27 27 27 28 28 29 29 30 30 29 28 28 27 27 27 25 25 24 23
27 28 28 28 28 27 26 25 25 25 25 26 27 27 27 27 27 27 27 27 26 27 27 26 27 29 31 33 34 32 28 24 24 25 26 26 26 25 25 25 25 25 23 21 20 20 22 25 27 25 22 20 19 20 21 21 21 22 24 25 25 24 25 26 27 26 26 26 27 28 29 29 29 29 28 27 27 28 29 28 27 26 25 24 23
27 28 29 29 28 27 26 25 25 25 25 26 27 26 26 27 27 27 27 26 26 26 27 26 27 30 31 31 32 32 28 23 22 23 23 22 23 24 24 25 24 24 24 24 24 25 23 22 20 19 17 17 18 19 20 20 22 24 25 25 25 24 23 24 25 26 26 26 27 28 28 29 30 29 27 26 26 27 28 27 26 25 24 24 24
25 26 28 28 27 26 25 25 25 26 26 26 26 26 26 26 27 26 26 26 25 25 25 25 27 30 31 31 32 31 27 23 22 22 22 22 23 24 24 24 25 24 24 23 21 16 14 12 12 13 14 16 17 19 20 22 24 25 25 24 23 22 22 22 23 24 25 26 27 28 29 29 28 27 27 27 28 28 27 27 26 25 25 24 24
24 25 26 27 26 25 24 25 26 26 25 25 25 26 26 26 25 26 26 25 25 24 23 23 25 27 29 30 30 28 25 23 23 22 21 21 23 24 24 25 26 25 23 22 18 10 4 4 5 8 11 13 16 19 22 24 26 25 24 23 22 22 23 23 24 25 25 25 26 27 28 28 28 27 28 29 29 28 27 27 26 25 25 25 24
24 25 25 26 25 24 24 24 24 24 24 25 25 25 25 24 25 25 25 24 24 24 23 23 24 26 27 27 27 26 25 25 24 22 21 22 23 24 26 26 25 24 22 20 17 12 8 4 1 1 4 5 8 11 15 19 22 24 25 24 24 24 25 26 27 28 29 29 28 28 28 28 29 29 29 30 30 30 28 27 27 26 25 24 23
23 24 25 25 25 24 23 23 23 23 24 25 25 25 25 24 24 24 24 23 23 23 23 23 23 24 25 25 25 24 24 25 24 23 22 23 23 24 26 26 25 23 22 20 17 14 11 9 7 6 5 5 4 6 9 13 16 19 22 24 25 25 26 27 28 30 31 32 32 31 30 30 30 30 30 31 31 31 29 28 27 27 25 24 23
21 23 24 24 23 23 23 23 23 23 23 23 24 24 25 24 24 23 23 22 22 22 22 23 23 23 23 24 24 24 24 24 23 23 23 24 24 25 26 25 24 22 21 20 18 16 14 13 11 10 10 9 8 8 10 12 13 15 17 20 22 23 24 25 27 30 32 33 34 33 32 31 30 31 31 31 30 30 29 27 27 26 25 24 24
20 22 23 22 22 22 22 22 22 23 23 23 23 23 23 24 24 24 23 23 23 22 22 23 24 24 23 23 23 23 23 22 22 23 24 25 25 26 25 24 24 22 21 20 18 17 16 15 14 14 13 13 12 13 13 13 13 14 16 18 20 21 23 25 27 29 30 32 34 35 35 33 32 31 31 30 30 29 28 27 26 25 24 23 23
20 21 21 21 20 20 21 22 22 22 22 23 23 22 22 23 23 24 24 24 24 24 24 24 24 24 24 23 23 22 21 21 22 23 24 24 25 25 25 24 24 23 22 21 20 19 17 16 15 14 14 14 14 15 15 14 14 15 17 18 19 22 24 25 27 28 29 29 30 32 33 33 33 32 31 30 30 29 28 27 25 24 24 23 23
19 20 19 20 20 20 20 21 21 21 22 22 22 22 23 23 23 24 24 24 24 24 25 25 25 25 25 24 24 23 22 22 23 24 24 24 25 25 25 25 25 25 24 23 22 20 19 18 16 16 15 15 15 15 15 15 15 16 17 18 19 21 23 26 28 29 29 30 30 30 31 32 32 31 30 29 29 28 27 26 25 24 23 23 22
18 18 18 18 19 20 20 20 20 20 21 21 21 22 22 23 23 24 24 24 25 25 26 26 26 26 26 26 25 25 24 24 24 24 24 25 25 25 26 26 26 26 26 25 24 22 21 20 19 18 18 17 17 16 16 16 17 17 18 19 20 21 24 26 28 29 30 31 30 31 32 32 31 30 29 29 28 28 27 26 25 23 22 21 20
17 17 17 17 18 19 20 20 20 21 21 21 21 21 21 22 22 23 24 24 24 25 26 26 26 25 26 26 26 26 26 26 26 26 26 26 26 26 27 27 28 28 28 28 28 27 26 25 23 22 22 21 20 20 20 20 20 20 21 21 22 23 25 27 28 29 30 31 31 31 32 32 31 29 28 27 27 26 25 24 23 22 21 20 19
Wind_Direction
26 24 21 17 12 12 13 13 14 14 17 18 17 17 15 13 12 11 12 12 11 11 10 8 5 360 354 348 342 336 328 316 308 303 298 292 286 280 275 271 267 265 265 263 260 257 256 255 254 251 249 247 245 243 241 240 239 237 237 231 220 217 213 206 207 207 204 211 213 210 209 207 206 210 213 214 215 214 214 216 217 218 220 221 223
22 20 17 12 7 6 5 5 3 2 4 5 6 7 7 6 5 4 3 3 3 3 3 3 2 1 358 355 350 344 339 330 319 309 302 296 290 284 278 272 269 267 266 264 262 260 257 256 256 255 252 249 247 245 242 240 240 239 238 237 229 222 217 212 208 198 185 195 202 203 204 203 204 208 212 214 215 212 211 213 215 217 219 221 224
14 14 11 6 4 2 0 0 359 357 355 354 354 356 356 355 356 356 355 354 354 354 354 353 353 354 354 353 352 349 345 340 332 320 307 300 294 288 282 276 272 269 266 266 265 264 260 257 256 256 254 252 249 247 245 241 240 239 238 237 235 230 224 218 213 202 186 186 193 194 196 201 205 208 211 214 216 214 211 212 215 217 218 221 224
6 7 5 -0 359 357 354 355 355 354 351 346 344 346 346 345 345 346 347 347 346 346 345 344 343 343 344 345 345 345 344 342 339 332 321 308 298 292 287 281 276 273 269 267 267 266 263 260 258 257 254 253 251 248 246 244 241 239 238 236 235 233 228 223 220 212 195 185 191 195 196 198 203 207 208 209 214 216 214 213 215 217 219 221 223
360 2 1 356 356 354 350 349 349 350 348 341 337 338 338 339 338 338 340 339 337 337 337 337 335 334 334 335 335 335 336 336 336 334 331 321 308 298 291 285 281 278 273 270 269 267 265 263 261 259 255 252 252 249 247 246 243 241 239 237 234 233 230 225 223 218 204 191 189 194 197 196 199 204 205 204 207 212 215 216 216 217 219 221 223
351 354 355 353 352 350 346 343 342 343 342 338 333 331 332 333 332 333 335 334 332 331 331 331 329 327 326 326 326 326 326 326 326 327 326 322 314 303 296 290 286 282 277 274 272 270 268 266 263 260 257 254 252 251 248 246 245 242 240 239 235 232 230 227 224 219 211 199 189 187 192 194 194 198 204 204 202 202 206 211 216 219 219 220 222
342 345 347 346 345 343 340 337 335 335 336 333 328 327 328 327 326 327 329 330 329 329 328 327 324 322 321 321 319 318 318 316 316 316 315 313 309 302 298 295 292 288 283 278 276 273 270 268 266 262 258 256 254 252 250 247 245 244 241 240 237 233 230 227 223 219 212 199 189 187 189 192 194 195 200 202 202 201 198 197 206 214 218 219 220
332 335 337 337 337 335 332 330 329 328 328 326 325 324 324 323 322 323 323 324 324 323 323 321 319 317 317 315 314 313 312 309 308 308 307 306 303 301 299 298 296 295 291 286 281 277 273 269 267 264 260 259 257 255 252 248 245 244 243 239 236 233 231 227 222 219 213 200 191 190 186 187 191 191 190 191 193 199 201 200 203 206 210 215 219
321 323 325 325 326 326 324 323 323 323 321 320 320 320 320 319 319 318 318 318 318 317 316 314 311 310 309 308 308 308 305 302 302 303 302 301 300 300 299 298 297 295 293 290 286 280 276 272 268 266 263 261 260 257 255 251 247 245 243 239 235 232 231 228 222 218 214 205 194 188 183 185 187 182 181 188 193 199 203 204 206 206 206 210 215
311 312 312 313 314 316 316 315 316 316 315 314 314 314 314 313 313 312 313 313 313 312 311 309 306 303 303 302 302 301 297 295 297 297 295 294 295 295 295 294 294 293 290 288 286 282 279 275 271 269 266 264 262 260 257 254 250 248 245 241 235 231 228 227 223 219 215 211 199 189 185 190 191 188 189 194 197 198 198 198 201 202 199 202 212
305 304 302 303 306 308 308 308 308 308 307 308 308 308 308 307 306 306 307 308 309 310 309 306 305 302 300 297 295 293 291 292 294 292 288 286 288 288 288 288 289 289 286 282 281 281 279 277 275 272 269 265 263 261 258 256 253 250 248 244 239 235 229 224 222 219 217 216 209 197 195 199 198 196 196 195 194 195 195 195 195 192 188 191 202
304 301 299 299 300 301 301 301 300 299 299 299 301 302 302 302 301 301 302 303 305 306 305 305 305 304 301 298 294 291 289 289 290 289 284 283 285 285 283 283 283 284 282 279 277 276 276 276 275 272 269 267 264 261 259 257 255 253 250 247 243 240 235 230 226 220 217 218 216 208 207 208 203 198 198 195 192 194 196 197 196 192 190 194 197
303 301 299 298 297 296 296 296 295 294 295 295 295 296 295 295 295 295 296 298 300 300 300 301 302 301 301 299 297 295 292 290 288 285 281 280 282 284 283 280 280 280 279 276 274 273 271 272 272 271 270 267 265 262 259 258 257 255 252 249 246 243 239 235 232 227 222 220 220 219 217 212 206 204 202 196 191 191 194 197 198 196 195 200 204
302 300 298 297 296 295 294 293 292 293 293 293 292 292 292 292 292 292 293 295 295 295 296 296 295 295 295 294 294 293 292 291 289 284 279 277 277 278 280 279 279 279 276 273 271 270 268 267 267 268 269 267 263 261 258 257 256 254 252 249 246 244 241 238 235 232 228 224 223 225 224 218 214 213 207 200 196 196 196 197 198 199 202 207 210
299 298 297 298 298 297 295 295 295 295 294 292 291 292 294 295 295 295 295 293 292 292 292 292 291 290 290 289 289 288 287 288 288 285 280 277 275 275 276 275 275 275 274 273 271 268 267 266 264 264 265 264 262 260 257 255 253 251 248 246 245 245 243 240 236 233 231 229 228 229 229 225 222 219 211 206 205 206 205 205 203 201 202 204 203
299 298 298 299 299 298 298 299 298 297 296 295 295 296 297 297 296 296 295 293 292 290 289 289 288 288 288 287 285 284 284 285 285 285 283 280 277 275 273 272 270 270 270 271 270 268 267 265 263 262 261 261 261 260 257 253 249 247 245 244 243 243 243 242 240 236 233 232 232 233 232 231 228 224 218 212 209 207 205 205 202 197 191 184 179
301 301 301 301 301 301 302 301 300 299 299 299 298 298 297 296 295 295 295 293 292 291 289 289 288 286 286 285 283 281 282 283 282 282 281 280 278 277 274 271 269 267 267 267 267 266 266 264 262 261 260 259 259 259 257 251 246 243 242 242 241 242 243 244 242 239 237 235 235 235 235 234 232 228 223 217 212 206 199 197 196 191 183 176 176
306 305 303 303 304 303 303 302 301 300 300 299 298 297 296 296 295 294 294 292 291 290 290 289 287 285 283 282 281 280 280 281 280 279 278 277 277 276 275 273 270 267 266 265 264 264 264 263 261 259 258 258 257 257 255 249 243 240 239 239 239 239 242 242 240 238 237 236 236 236 236 235 233 231 226 222 216 208 202 202 198 188 185 191 186
309 308 306 305 305 304 304 302 300 299 298 297 297 297 296 295 295 294 292 291 290 289 289 288 287 286 284 283 282 281 280 281 280 279 279 278 277 276 275 274 271 269 267 265 264 262 261 262 261 258 256 256 256 255 253 248 242 239 238 236 234 238 241 240 236 234 232 231 231 231 231 230 229 228 226 222 217 213 211 210 201 192 192 195 182
310 308 307 306 305 304 304 302 301 300 298 298 298 297 296 295 295 294 293 291 290 288 288 288 287 287 286 285 284 282 281 282 282 281 280 279 277 276 275 273 271 270 269 267 264 262 260 258 258 257 255 255 254 253 252 248 243 239 237 233 231 238 242 238 231 230 228 225 225 225 224 222 220 219 218 215 213 212 212 210 205 200 198 192 183
309 308 308 307 306 305 306 304 303 302 301 300 298 296 296 296 295 295 294 292 291 290 289 289 288 287 286 286 285 284 284 284 284 284 282 280 278 276 274 272 270 270 269 267 263 260 258 255 255 254 254 254 254 252 250 248 245 239 235 233 235 240 241 233 228 228 225 222 222 221 220 218 215 212 211 210 209 210 209 209 207 206 202 195 189
309 309 308 308 308 308 308 307 306 305 303 302 300 298 298 297 295 294 294 293 292 290 290 290 289 288 287 287 287 287 287 287 287 286 286 284 281 279 275 272 270 269 267 265 262 259 256 254 252 251 251 252 253 252 248 245 244 239 235 236 239 240 237 230 226 224 220 218 218 216 216 215 213 211 211 210 210 209 208 208 208 207 205 203 199
311 309 309 309 309 310 309 309 309 307 305 304 300 298 298 298 296 295 294 293 292 290 290 291 290 289 289 289 290 289 289 290 289 289 290 290 288 285 281 278 275 271 265 262 261 259 257 254 252 250 250 250 251 251 247 243 241 238 235 236 237 237 234 229 224 218 214 215 214 212 214 213 211 211 211 210 210 209 206 207 207 205 205 207 207
312 310 310 309 309 310 310 310 309 307 306 305 301 299 298 298 296 295 293 292 291 290 291 291 290 290 290 291 292 291 291 293 293 292 293 293 293 292 289 285 281 276 270 265 261 259 257 255 253 250 249 249 249 250 248 244 240 236 234 234 234 233 230 225 221 216 213 212 211 212 213 212 211 212 211 209 208 207 205 206 205 203 202 204 206
312 311 310 310 310 311 310 309 308 307 306 305 301 298 298 297 296 296 295 293 291 290 291 291 289 288 288 290 291 292 292 293 294 295 296 297 297 296 294 290 286 281 276 270 265 260 257 256 254 252 252 251 250 249 247 245 241 237 234 233 231 228 225 221 218 215 212 212 212 213 214 213 212 214 213 208 204 201 200 199 197 195 196 197 197
311 310 310 310 310 311 310 309 308 307 305 303 300 298 298 298 297 298 297 294 291 289 289 288 287 286 285 286 287 288 289 290 290 291 294 294 294 295 295 294 293 291 286 279 271 264 261 258 255 253 253 252 250 249 247 244 241 236 233 231 228 224 222 219 215 212 212 214 214 215 215 213 212 212 209 203 198 195 192 188 183 182 183 181 175
311 310 311 311 311 311 310 307 307 307 306 305 303 301 300 299 298 297 296 293 290 289 287 286 285 284 283 283 284 284 284 285 285 287 288 288 288 291 293 294 296 297 297 294 286 274 265 261 259 258 257 255 253 251 247 242 237 233 230 228 225 223 221 219 215 212 213 214 214 215 215 210 205 203 200 195 193 191 188 184 178 175 175 171 162
310 310 311 311 311 310 308 307 306 306 306 305 304 302 302 300 296 293 291 289 287 285 284 283 281 280 280 281 283 282 281 280 281 281 281 281 281 282 283 286 289 291 292 295 296 292 281 270 264 263 263 259 254 249 243 237 233 230 228 226 224 223 222 220 216 214 213 213 212 211 208 201 197 195 192 190 189 188 184 182 179 175 171 167 160
310 309 310 311 310 309 308 307 307 306 305 305 303 300 299 297 294 291 289 287 285 284 284 284 283 283 282 282 284 284 283 283 283 283 282 282 282 282 281 280 282 285 287 288 291 293 291 280 265 257 255 253 249 243 238 232 228 225 225 224 222 221 220 216 212 211 210 208 206 203 198 194 191 189 187 186 187 185 182 181 178 174 172 171 168
309 309 310 309 308 308 308 307 306 306 304 303 302 300 297 295 293 292 291 290 289 289 288 289 290 290 290 289 288 288 290 292 293 293 292 291 289 287 286 284 283 283 285 288 288 288 286 281 270 255 243 238 239 240 236 230 224 220 220 221 221 219 216 212 209 208 206 202 200 198 193 188 186 184 184 185 184 182 182 181 178 174 174 175 173
307 307 308 307 306 307 307 306 305 303 301 301 301 300 299 297 295 293 292 293 294 293 292 291 293 294 293 293 293 293 294 296 297 297 296 294 292 289 287 286 285 283 283 285 286 283 278 276 272 261 245 232 231 237 236 230 223 219 217 219 220 218 214 210 207 204 201 198 196 193 189 186 184 183 183 182 178 177 178 179 178 177 177 177 174
303 304 304 304 304 306 305 303 302 300 300 301 301 300 300 300 300 298 296 296 295 295 295 295 295 296 295 295 296 297 297 298 298 297 296 295 293 291 288 286 284 283 282 281 278 276 274 273 270 265 254 240 232 235 236 231 225 221 218 218 218 215 212 210 206 200 196 194 191 187 185 184 183 181 180 177 173 173 174 176 177 178 178 179 176
302 301 301 302 304 305 303 300 298 298 300 301 301 301 301 301 302 302 302 300 297 295 295 296 297 298 298 298 299 299 299 299 299 298 297 295 292 290 288 285 283 282 281 277 272 271 274 274 271 266 260 249 238 234 234 231 226 222 220 218 216 215 212 209 203 196 193 191 187 183 181 180 178 176 176 175 173 173 174 175 177 177 177 178 177
303 300 299 300 302 302 299 296 296 298 300 300 300 300 300 300 300 300 302 303 302 300 299 298 299 299 299 300 301 301 301 301 301 300 300 298 295 292 289 286 284 281 278 275 270 266 269 273 270 265 260 254 242 232 230 229 224 222 223 221 217 214 209 201 195 192 190 187 183 179 176 176 174 173 173 173 174 176 177 177 177 178 178 178 175
304 300 299 301 301 298 295 295 296 299 300 300 299 299 299 299 299 298 299 301 302 301 301 301 302 302 302 302 302 303 303 302 302 302 301 299 297 295 293 288 281 275 272 270 267 263 265 269 267 260 255 249 237 226 227 230 227 224 224 220 212 204 197 191 188 187 185 180 177 175 174 174 175 175 174 174 175 177 179 180 181 181 181 178 173
304 302 302 303 302 297 294 295 297 299 300 300 299 299 299 299 298 297 298 298 297 298 299 301 302 304 304 304 303 304 305 305 304 302 301 300 299 298 295 286 273 263 260 261 261 259 258 263 267 263 253 240 227 220 225 230 230 227 223 215 203 192 186 183 182 180 178 176 175 175 175 176 177 176 175 175 177 178 179 179 180 181 180 176 172
304 302 303 305 303 298 295 297 299 301 302 302 301 300 300 298 298 298 297 296 296 297 298 300 303 306 306 307 308 308 307 307 306 304 301 301 301 299 294 285 277 268 258 254 256 257 256 259 267 267 253 230 217 218 222 225 227 224 215 204 194 185 181 180 179 177 177 177 177 177 177 177 177 175 173 172 174 176 176 176 175 175 176 174 170
304 303 304 305 302 298 297 298 302 304 304 303 302 301 300 299 299 299 297 297 297 297 298 300 302 303 303 306 310 312 310 309 309 308 307 308 308 305 300 295 292 286 269 252 249 253 255 258 266 266 249 225 217 223 224 223 221 212 199 191 187 183 180 180 179 179 179 178 177 177 176 174 173 174 172 171 170 171 172 172 171 169 169 169 168
307 307 307 306 302 299 297 300 303 306 305 304 304 303 302 300 301 300 299 299 299 298 298 299 300 300 301 305 308 310 309 307 306 307 308 309 309 310 309 307 307 305 294 272 256 251 251 256 262 257 239 221 220 224 223 218 209 198 187 181 178 176 177 178 178 178 178 175 173 172 171 170 171 172 172 170 169 168 168 169 169 168 166 166 167
309 311 312 309 304 299 300 303 305 306 306 305 305 305 304 303 302 302 302 301 301 301 302 301 300 302 304 306 308 309 307 304 303 303 303 305 309 314 315 313 310 307 304 295 283 271 262 258 254 241 224 217 222 222 217 208 195 185 180 178 175 175 177 178 176 175 174 171 169 168 168 168 168 169 169 168 167 166 165 165 167 167 166 164 161
311 313 313 310 304 301 303 306 307 308 308 308 307 306 306 306 307 306 306 305 305 306 307 306 307 309 311 313 317 321 322 319 315 313 313 314 317 317 316 314 312 310 309 308 300 285 268 253 238 223 216 222 222 213 203 194 185 180 179 177 176 175 175 173 173 172 169 167 165 164 165 166 165 164 163 162 161 161 161 161 160 160 159 157 155
314 315 314 309 305 304 306 309 311 312 312 312 311 311 311 311 311 312 312 311 310 311 312 312 314 317 319 321 326 330 331 328 325 324 323 323 323 321 318 318 319 320 326 331 325 299 261 232 217 216 220 220 211 199 191 186 182 180 178 175 171 168 165 165 167 166 163 162 162 161 161 162 161 159 157 155 154 154 155 155 153 152 152 152 152
318 318 314 309 306 306 309 312 314 315 316 316 315 315 315 315 315 316 316 315 315 317 317 317 319 321 323 326 330 333 333 330 328 327 327 327 327 327 326 327 329 334 342 351 353 341 291 233 227 225 218 211 203 197 192 187 183 179 173 168 164 161 159 159 160 160 158 157 157 157 156 156 155 152 150 150 150 149 149 149 149 149 150 150 151
324 322 316 311 309 311 314 316 317 318 319 319 318 318 320 320 320 320 320 320 321 322 322 322 325 326 327 329 332 335 336 334 332 331 331 332 332 333 335 338 345 353 360 4 7 7 7 9 14 177 181 187 192 193 189 185 182 177 171 165 161 160 160 161 161 161 159 156 153 152 151 151 150 149 149 149 149 147 146 148 148 148 148 149 149
330 325 318 314 314 317 320 322 324 325 325 325 323 324 325 325 325 326 325 325 326 327 326 326 328 329 328 329 332 334 336 336 336 335 335 336 337 340 344 350 358 6 12 16 20 24 29 38 54 73 86 98 124 153 167 171 172 170 168 165 162 161 163 164 164 163 161 156 152 150 149 149 149 149 149 149 149 147 147 148 149 147 147 149 150
334 326 319 317 318 320 323 327 330 331 331 331 329 327 328 330 331 331 330 329 329 328 328 329 330 330 329 330 332 334 336 338 339 339 339 341 343 346 349 356 5 14 20 26 32 38 44 51 61 71 78 83 94 113 133 145 152 157 160 161 160 159 161 162 162 161 160 157 154 151 149 148 149 150 150 149 148 147 145 146 147 148 149 151 152
336 327 322 321 322 323 326 331 335 335 335 335 333 331 331 333 334 335 335 335 334 333 333 334 334 333 333 333 334 337 340 343 344 345 346 349 352 355 358 5 13 20 27 33 39 45 51 58 66 74 80 86 95 107 118 129 139 146 151 154 156 157 158 158 158 158 157 156 154 152 150 148 147 148 148 147 145 144 143 144 146 148 149 150 151
336 328 326 327 329 330 332 335 338 338 338 338 337 336 336 337 338 339 340 340 341 342 342 342 343 343 341 340 341 344 347 351 353 354 355 358 1 6 11 17 21 25 31 37 43 48 55 63 71 78 83 89 95 103 112 121 130 137 143 149 153 155 156 155 153 151 151 151 150 149 148 147 146 146 146 145 143 143 142 143 145 147 148 150 151
336 332 332 334 336 338 339 340 341 340 340 340 339 340 342 343 343 344 344 345 348 350 351 351 353 354 353 352 352 353 356 0 3 3 5 8 12 16 21 27 30 32 34 38 42 47 53 63 72 80 86 91 96 102 109 116 123 130 137 143 148 152 154 153 151 149 148 148 147 146 145 143 141 141 142 142 142 142 142 142 144 146 147 150 154
336 336 338 340 343 345 347 348 348 347 346 345 343 344 346 347 347 349 351 351 353 356 358 359 0 2 2 2 2 3 7 11 13 13 14 16 19 23 27 32 35 37 39 41 45 48 54 60 68 75 81 87 91 96 102 107 112 119 126 133 140 145 146 145 145 146 147 145 144 144 142 140 138 138 139 140 142 142 143 143 145 146 146 147 152
339 342 344 346 348 352 354 355 354 352 351 350 348 346 348 350 351 354 356 357 358 360 1 3 4 6 8 9 10 11 14 18 21 22 22 22 25 29 34 38 41 44 46 48 50 52 55 59 63 68 74 80 84 89 95 101 107 114 120 125 131 135 137 137 139 143 144 145 145 144 142 141 139 138 138 140 142 143 143 144 145 146 146 148 151